Regional Weather Roundup
Issued by NWS Green Bay, WI

Current Version | Previous Version | Text Only | Print | Product List | Glossary On
Versions: 1 2 3 4 5 6 7 8 9 10 11 12 13 14 15 16 17 18 19 20 21 22 23 24 25 26 27 28 29 30 31 32 33 34 35 36 37 38 39 40 41 42 43 44 45 46 47 48 49 50
880
ASUS43 KGRB 210511
RWRGRB

NORTH-CENTRAL AND NORTHEAST WISCONSIN REGIONAL WEATHER ROUNDUP
NATIONAL WEATHER SERVICE GREEN BAY WI
1200 AM CDT WED AUG 21 2019

WIZ005-009-010>012-018-019-210600-
NORTH CENTRAL WISCONSIN

CITY           SKY/WX    TMP DP  RH WIND       PRES   REMARKS
IRONWOOD       FAIR      61  60  97 SW3       30.00R
MANITOWISH WTR CLOUDY    64  64 100 N7        30.00R
ARBOR VITAE    CLOUDY    65  62  90 N8        29.99R
EAGLE RIVER    CLOUDY    60  60 100 CALM      29.98R
LAND O LAKES   CLOUDY    66  61  83 N5        30.00S
RHINELANDER    CLOUDY    65  62  90 CALM      29.98F
PHILLIPS       MOCLDY    64  64 100 N3        29.99R
ANTIGO         FAIR      59  58  97 CALM      29.98S
TOMAHAWK       CLOUDY    58  58  97 CALM      29.98S
MERRILL        CLOUDY    62  62 100 CALM      29.98S
$$

WIZ013-073-210600-
NORTHEAST WISCONSIN

CITY           SKY/WX    TMP DP  RH WIND       PRES   REMARKS
IRON MOUNTAIN  MOCLDY    66  60  81 CALM      29.94S
MARINETTE      FAIR      64  63  96 CALM      29.92S
OCONTO         FAIR      66  65  96 W3        29.92S
$$

WIZ017-030-035>037-045-210600-
CENTRAL WISCONSIN

CITY           SKY/WX    TMP DP  RH WIND       PRES   REMARKS
MEDFORD        FAIR      64  63  94 S5        29.98S
WAUSAU         FAIR      66  63  90 CALM      29.97R
MOSINEE        MOCLDY    64  64 100 W6        29.99S
MARSHFIELD     FAIR      67  64  90 CALM      29.98S
WISC RAPIDS    FAIR      67  63  87 CALM      29.98R
STEVENS POINT  CLOUDY    69  63  81 CALM      29.98S
WAUPACA        FAIR      67  65  90 SW3       29.96S
SHAWANO        CLOUDY    71  65  80 W5        29.94S
CLINTONVILLE   NOT AVBL
WAUTOMA        FAIR      64  63  96 CALM      29.97S
$$

WIZ038-039-048-051-210600-
FOX VALLEY

CITY           SKY/WX    TMP DP  RH WIND       PRES   REMARKS
NWS GREEN BAY  FAIR      69  66  90 W6        29.93S
APPLETON       FAIR      68  63  83 W9        29.94S
OSHKOSH        FAIR      70  66  87 W3        29.95R
FOND DU LAC    FAIR      72  68  87 SW5       29.96R
$$

WIZ022-050-052-210600-
EAST CENTRAL WISCONSIN

CITY           SKY/WX    TMP DP  RH WIND       PRES   REMARKS
EPHRAIM        FAIR      67  65  93 W3        29.91S
WASHINGTON ISL CLOUDY    63  62  98 CALM      29.90S
STURGEON BAY   FAIR      68  66  93 SW5       29.93R
MANITOWOC      FAIR      71  68  90 NW7       29.93S
SHEBOYGAN      FAIR      69  66  90 W3        29.94R
$$

LMZ563-521-522-541>543-210600-
LAKESHORE

STATION/POSITION TIME  TEMP    WIND        PRES    VSBY  WAVE
                       AIR SEA DIR/SP/G                  HT/PER
                 (UTC) (F)     (DEG/KT/KT) (MB)    (MI)  (FT/S)
SHEBOYGAN LKSHOR 0500   73     250/  7/  9 1013.5R
KEWAUNEE LKSHORE 0430   69     310/  2/  5 1012.8R
NORTHPORT PIER   0440   69     220/  1/  2 1012.5S
N MID LAKE BUOY  0450   70     210/  6/  8 1012.9F         0
SISTER BAY LKSHO 0426   67        CALM       N/A
MENOMINEE LKSHOR 0430   71 64  270/  3/  5 1012.6S
$$




USA.gov is the U.S. government's official web portal to all federal, state and local government web resources and services.